This is the latest recevied weather packets stored in our database for station/object NI4CE-11. If no packets are shown the sender has not sent any weather packets the latest 10 day(s).
| Time | Temp. | Humidity | Pressure | Rain* | Wind** | Luminosity | Snow |
|---|---|---|---|---|---|---|---|
| 1777541717 | 20.56° C | 100% | 1012.2 hPa | 0 mm | - | - | - |
| 1777541417 | 21.67° C | 100% | 1012 hPa | 0 mm | - | - | - |
| 1777541117 | 22.78° C | 100% | 1011.9 hPa | 0 mm | - | - | - |
| 1777540817 | 23.33° C | 100% | 1011.9 hPa | 0 mm | - | - | - |
| 1777540517 | 22.78° C | 100% | 1011.9 hPa | 0 mm | - | - | - |
| 1777540217 | 22.22° C | 100% | 1011.9 hPa | 0 mm | - | - | - |
| 1777539917 | 23.33° C | 100% | 1011.7 hPa | 0 mm | - | - | - |
| 1777539683 | 22.78° C | 100% | 1011.7 hPa | 0 mm | - | - | - |
| 1777539617 | 22.78° C | 100% | 1011.7 hPa | 0 mm | - | - | - |
| 1777539317 | 22.22° C | 100% | 1011.7 hPa | 0 mm | - | - | - |
| 1777539017 | 23.33° C | 100% | 1011.8 hPa | 0 mm | - | - | - |
| 1777538717 | 23.89° C | 100% | 1011.8 hPa | 0 mm | - | - | - |
| 1777538417 | 23.89° C | 100% | 1012 hPa | 0 mm | - | - | - |
| 1777538117 | 21.67° C | 100% | 1012 hPa | 0 mm | - | - | - |
| 1777537817 | 23.89° C | 100% | 1012.1 hPa | 0 mm | - | - | - |
| 1777537517 | 23.33° C | 100% | 1012.1 hPa | 0 mm | - | - | - |
| 1777537217 | 20.56° C | 100% | 1012.2 hPa | 0 mm | - | - | - |
| 1777536918 | 21.67° C | 100% | 1012.2 hPa | 0 mm | - | - | - |
| 1777536618 | 22.22° C | 100% | 1012.1 hPa | 0 mm | - | - | - |
| 1777536318 | 21.67° C | 100% | 1012.1 hPa | 0 mm | - | - | - |
| 1777536018 | 20.56° C | 100% | 1012.1 hPa | 0 mm | - | - | - |
| 1777535718 | 21.11° C | 100% | 1012.1 hPa | 0 mm | - | - | - |
| 1777535593 | 21.11° C | 100% | 1012.3 hPa | 0 mm | - | - | - |
| 1777535418 | 21.11° C | 100% | 1012.3 hPa | 0 mm | - | - | - |
| 1777535118 | 21.11° C | 100% | 1012.3 hPa | 0 mm | - | - | - |
* Rain latest hour (hover to see other rain measurements)
** Current wind speed in m/s (hover to see current wind gust speed)